Weather in Ciudad del Carmen

Mexico     18°38′35″N   91°49′05″W
temp.,
°C
wind,
m/s
gust,
m/s
humid.,
%
clouds,
%
prec.,
mm/h
press.,
hPa
HPBL,
m
9 may, sun
sun901:00+29ese81173100 1.1 1012679
04:00+27se1214755 0.1 1011765
07:00+26se1114797 0.1 1013778
10:00+27se101273100 0.0 1013857
13:00+30ese69670 0.0 1011628
16:00+31ene23620 0.0 100832
19:00+30nne78720 0.0 1008144
22:00+30ene710690 0.0 1010261
10 may, mon
mon1001:00+29se1013680 0.0 1010796
04:00+27se1114760 0.0 1010797
07:00+27se1113800 0.0 1011770
10:00+28se1012745 0.0 1012883
13:00+30e35695 0.0 1011147
16:00+31nne66683 0.0 1008140
19:00+30nne810745 0.0 1007192
22:00+29ne912804 0.0 1010437
11 may, tue
tue1101:00+29ese1014674 0.0 1010709
04:00+27se11137637 0.0 1010804
07:00+27se11147858 0.0 1011814
10:00+28se1012725 0.0 1012908
13:00+30ese466833 0.0 1010156
16:00+30nne877094 0.0 1007168
19:00+30n687084 0.0 100787
22:00+30ene8117731 0.1 1009241
12 may, wed
wed1201:00+30ese1013698 0.1 1010855
04:00+28se1114765 0.0 1010892
07:00+27se1114785 0.0 1011903
10:00+29se810722 0.0 10131003
13:00+30ene347094 0.0 1011118
16:00+30nne8874100 0.0 1008198
19:00+30ne91177100 0.0 1008224
22:00+29ne10127899 0.6 1011498
13 may, thu
thu1301:00+30ese7107250 0.7 1012821
04:00+28ese10127373 0.0 1011886
07:00+27ese7976100 0.0 1013884
10:00+27ese6778100 0.0 1014878
13:00+28nnw2270100 0.0 1013172
16:00+29nnw87765 0.0 1011353
19:00+28n8879100 2.1 1012420
22:00+28nne101078100 4.1 1014811